This is the latest recevied weather packets stored in our database for station/object W4MLN-1. If no packets are shown the sender has not sent any weather packets the latest 10 day(s).
| Time | Temp. | Humidity | Pressure | Rain* | Wind** | Luminosity | Snow |
|---|---|---|---|---|---|---|---|
| 1777554626 | 11.67° C | 74% | 1012.6 hPa | 0 mm | - | 140 W/m² | - |
| 1777554326 | 11.67° C | 74% | 1012.6 hPa | 0 mm | - | 305 W/m² | - |
| 1777554026 | 11.11° C | 76% | 1012.6 hPa | 0 mm | - | 198 W/m² | - |
| 1777553726 | 11.11° C | 77% | 1012.5 hPa | 0 mm | - | 218 W/m² | - |
| 1777553426 | 11.11° C | 76% | 1012.4 hPa | 0 mm | - | 161 W/m² | - |
| 1777553126 | 11.11° C | 77% | 1012.4 hPa | 0 mm | - | 134 W/m² | - |
| 1777552826 | 11.11° C | 78% | 1012.4 hPa | 0 mm | - | 126 W/m² | - |
| 1777552526 | 11.11° C | 78% | 1012.3 hPa | 0 mm | - | 123 W/m² | - |
| 1777552226 | 11.11° C | 79% | 1012.4 hPa | 0 mm | - | 56 W/m² | - |
| 1777551926 | 11.11° C | 78% | 1012.4 hPa | 0 mm | - | 68 W/m² | - |
| 1777551626 | 11.11° C | 78% | 1012.4 hPa | 0 mm | - | 85 W/m² | - |
| 1777551327 | 11.11° C | 80% | 1012.4 hPa | 0 mm | - | 122 W/m² | - |
| 1777551027 | 11.11° C | 81% | 1012.3 hPa | 0 mm | - | 57 W/m² | - |
| 1777550727 | 11.11° C | 81% | 1012.4 hPa | 0 mm | - | 39 W/m² | - |
| 1777550412 | 11.11° C | 81% | 1012.5 hPa | 0 mm | - | 13 W/m² | - |
| 1777550103 | 11.11° C | 81% | 1012.4 hPa | 0 mm | - | 17 W/m² | - |
| 1777549797 | 11.11° C | 81% | 1012.4 hPa | 0 mm | - | 15 W/m² | - |
| 1777549497 | 11.11° C | 82% | 1012.5 hPa | 0 mm | - | 12 W/m² | - |
| 1777549197 | 11.11° C | 81% | 1012.2 hPa | 0 mm | - | 13 W/m² | - |
| 1777548896 | 11.11° C | 82% | 1012 hPa | 0 mm | - | 18 W/m² | - |
| 1777548596 | 11.11° C | 81% | 1011.8 hPa | 0 mm | - | 20 W/m² | - |
| 1777548295 | 11.11° C | 82% | 1011.7 hPa | 0 mm | - | 26 W/m² | - |
| 1777547995 | 11.11° C | 82% | 1011.7 hPa | 0 mm | - | 21 W/m² | - |
| 1777547696 | 11.11° C | 82% | 1011.7 hPa | 0 mm | - | 23 W/m² | - |
| 1777547385 | 11.11° C | 83% | 1011.5 hPa | 0 mm | - | 22 W/m² | - |
* Rain latest hour (hover to see other rain measurements)
** Current wind speed in m/s (hover to see current wind gust speed)